[[{"header":{"parameterUnit":"m.s-1","parameterCategory":1,"la1":30.2991,"la2":30.254,"lo1":-89.0895,"lo2":-89.0444,"dy":0.0017,"dx":0.0017,"nx":28,"ny":28,"refTime":"2023-08-11T09:00:00:Z","depth":0,"parameterNumber":2,"parameterNumberName":"U-component_of_WINDS"},"data":[0,0,0,0,0,0,0,0,0,0,0,0,0,0,0,0,0,0,0,0,0,0,0,0,0,0,0,0,0,0,0,0,0,0,0,0,0,0,0,0,0,0,0,0,0,0,0,0,0,0,0,0,0,0,0,0,0,0,5.2766,5.2768,0,5.2933,5.2935,5.2936,5.2887,5.2884,5.2881,5.2877,5.3047,5.3055,5.3063,0,0,0,0,0,0,0,0,0,0,0,0,0,5.2401,5.2408,5.2766,5.2768,5.277,5.2932,5.2935,5.2937,5.2888,5.2884,5.288,5.2876,5.3045,5.3054,5.3063,0,0,0,0,0,0,0,0,0,0,0,0,0,5.2563,5.2411,5.2765,5.2765,5.2767,5.2932,5.2935,5.2937,5.2889,5.2884,5.2879,5.2874,5.3042,5.3053,5.3065,5.324,0,0,5.31,5.3105,0,0,0,0,0,0,0,0,5.2554,5.2576,5.2763,5.2765,5.2768,5.2884,5.2868,5.3039,5.289,5.2843,5.2877,5.2871,5.2997,5.3012,5.3055,5.3248,5.3255,5.3101,5.3108,5.3113,5.3116,0,0,0,0,0,0,0,5.2543,5.2569,5.2832,5.2766,5.2769,5.2755,5.2773,5.29,5.2947,5.2846,5.2843,5.2864,5.2997,5.3044,5.3058,5.3257,5.3101,5.3111,5.3118,5.3123,5.3597,5.3603,0,0,0,0,0,0,5.253,5.256,5.2826,5.2837,5.2646,5.2766,5.2786,5.2852,5.2945,5.2955,5.2868,5.2861,5.3026,5.3045,5.3064,5.3271,5.3113,5.3124,5.3131,5.3592,5.3598,5.3605,0,0,0,0,0,0,5.2523,5.2555,5.282,5.2698,5.273,5.2778,5.2853,5.2858,5.2904,5.2962,5.2969,5.2907,5.3023,5.3048,5.3195,5.3277,5.3129,5.314,5.3585,5.3594,5.3602,5.369,0,0,0,0,0,0,5.2512,5.2552,5.262,5.2699,5.2737,5.2949,5.2858,5.2865,5.2924,5.2916,5.3,5.3009,5.3021,5.3178,5.3207,5.329,5.3149,5.3578,5.3589,5.3599,5.368,5.37,5.3718,0,0,0,0,0,5.25,5.2639,5.2624,5.2656,5.2823,5.2954,5.2975,5.2986,5.2931,5.2999,5.3035,5.3006,5.3264,5.3194,5.3226,5.3313,5.3573,5.3586,5.3598,5.3671,5.3696,5.3717,0,0,0,0,0,0,5.2569,5.265,5.2634,5.2803,5.2872,5.2946,5.3032,5.3013,5.3099,5.3088,5.3098,5.3117,5.3267,5.3306,5.3226,5.3485,5.341,5.343,5.3455,5.3479,5.3497,5.3483,5.3158,0,0,0,0,0,5.2604,5.2704,5.2769,5.2913,5.2948,5.2984,5.3042,5.3044,5.3115,5.3144,5.3192,5.3262,5.3357,5.3421,5.3513,5.3686,5.3701,5.3762,5.3781,5.3796,5.3812,5.3901,5.3928,5.3646,5.3646,5.3646,0,0,5.2677,5.2734,5.2797,5.2928,5.2981,5.3083,5.3009,5.3121,5.3196,5.3161,5.3302,5.3339,5.3418,5.3577,5.365,5.3614,5.3893,5.3812,5.3824,5.3831,5.3917,5.3944,5.3967,5.3655,5.3653,5.3652,0,0,5.2862,5.2917,5.304,5.3094,5.3176,5.3199,5.3228,5.3304,5.3327,5.3469,5.3444,5.3533,5.37,5.3755,5.3805,5.4008,5.3983,5.4038,5.4136,5.4223,5.4245,5.4265,5.4333,5.4358,5.4054,5.4054,5.4054,0,5.2942,5.3095,5.3105,5.3218,5.3275,5.3248,5.3371,5.3424,5.3532,5.357,5.3529,5.3734,5.3786,5.3956,5.4005,5.4048,5.4079,5.4027,5.4241,5.4261,5.4279,5.4344,5.437,5.406,5.4059,5.4059,5.4058,0,5.3188,5.3295,5.3384,5.3487,5.3555,5.3673,5.3698,5.3765,5.3761,5.3787,5.393,5.399,5.4092,5.4133,5.4131,5.4302,5.4276,5.4238,5.4162,5.4312,5.4373,5.4398,5.4068,5.4066,5.4065,5.4063,0,0,5.3421,5.3526,5.3559,5.3603,5.369,5.3772,5.3887,5.3986,5.4041,5.4116,5.4211,5.4351,5.4315,5.4372,5.4376,5.4453,5.4604,5.4405,5.4406,5.4436,5.4791,5.4816,5.4845,5.4589,5.4594,5.4598,5.4782,0,5.361,5.3812,5.3823,5.4006,5.4102,5.4077,5.4176,5.424,5.4267,5.4351,5.4382,5.4479,5.4427,5.446,5.4535,5.457,5.4674,5.4557,5.4674,5.4678,5.4651,5.4877,5.4906,5.5077,5.4807,5.4811,5.4814,0,5.3857,5.3938,5.413,5.4199,5.424,5.433,5.4419,5.4501,5.4571,5.4585,5.4648,5.464,5.4755,5.4677,5.4834,5.4754,5.4802,5.4826,5.4833,5.4842,5.4753,5.4888,5.5133,5.5157,5.4853,5.4849,5.4847,0,5.4002,5.4159,5.4293,5.4333,5.4419,5.4481,5.452,5.4585,5.4642,5.4721,5.4757,5.4849,5.4898,5.4967,5.4983,5.4926,5.5139,5.5063,5.5151,5.5151,5.5195,5.5191,5.5446,5.5233,5.5233,5.5232,5.5232,0,5.421,5.4327,5.4359,5.4441,5.4571,5.4582,5.471,5.4744,5.4801,5.4888,5.4873,5.4954,5.4972,5.5057,5.507,5.5196,5.5219,5.5232,5.5233,5.5231,5.5229,5.5261,5.5248,5.5239,5.5238,5.5236,5.5235,0,5.4393,5.4419,5.4563,5.4631,5.4651,5.4743,5.4801,5.4879,5.4904,5.5013,5.504,5.5079,5.5177,5.52,5.5319,5.5327,5.5474,5.5467,5.545,5.5448,5.5534,5.5524,5.5815,5.5852,5.5618,5.562,5.5622,0,5.4521,5.4611,5.4688,5.4745,5.4786,5.4878,5.4936,5.495,5.501,5.5095,5.5161,5.5258,5.5335,5.5494,5.5531,5.562,5.5612,5.5708,5.5625,5.5619,5.5608,5.5601,5.5608,5.5722,5.5725,5.5727,5.5729,0,5.4746,5.4754,5.4838,5.4926,5.4995,5.5066,5.5133,5.518,5.5202,5.5271,5.5371,5.5431,5.5549,5.5644,5.5733,5.5771,5.5753,5.5755,5.5779,5.5776,5.5761,5.5766,5.5489,5.5747,5.5746,5.5744,5.5743,5.5742,5.4903,5.4979,5.5045,5.5138,5.5189,5.5252,5.5326,5.536,5.5443,5.554,5.5544,5.5651,5.5716,5.5833,5.5876,5.5959,5.5929,5.5966,5.5974,5.5982,5.5987,5.5751,5.5976,5.5976,5.5975,5.5975,5.5974,0,5.5123,5.5163,5.5249,5.5342,5.5414,5.5391,5.5463,5.5525,5.562,5.5682,5.5758,5.587,5.5961,5.6006,5.6095,5.6153,5.6146,5.6176,5.617,5.6178,5.6011,5.5979,5.6179,5.6179,5.6179,5.6179,5.6179,5.6179,5.5245,5.5372,5.5387,5.5538,5.5577,5.5682,5.5725,5.5781,5.5829,5.5956,5.6031,5.6059,5.6113,5.6206,5.6287,5.6298,5.633,5.6362,5.6368,5.6211,5.619,5.617,5.614,5.637,5.637,5.6527,5.6529,5.653]},{"header":{"parameterUnit":"m.s-1","parameterCategory":1,"la1":30.2991,"la2":30.254,"lo1":-89.0895,"lo2":-89.0444,"dy":0.0017,"dx":0.0017,"nx":28,"ny":28,"refTime":"2023-08-11T09:00:00:Z","depth":0,"parameterNumber":3,"parameterNumberName":"V-component_of_WINDS"},"data":[0,0,0,0,0,0,0,0,0,0,0,0,0,0,0,0,0,0,0,0,0,0,0,0,0,0,0,0,0,0,0,0,0,0,0,0,0,0,0,0,0,0,0,0,0,0,0,0,0,0,0,0,0,0,0,0,0,0,2.5833,2.5833,0,2.5904,2.5905,2.5905,2.5873,2.5872,2.587,2.5868,2.5939,2.5943,2.5946,0,0,0,0,0,0,0,0,0,0,0,0,0,2.5665,2.5669,2.5833,2.5833,2.5834,2.5904,2.5905,2.5906,2.5874,2.5872,2.5869,2.5867,2.5938,2.5942,2.5947,0,0,0,0,0,0,0,0,0,0,0,0,0,2.5737,2.567,2.5832,2.5827,2.5827,2.5904,2.5905,2.5906,2.5874,2.5872,2.5869,2.5866,2.5937,2.5942,2.5947,2.6033,0,0,2.5964,2.5966,0,0,0,0,0,0,0,0,2.5733,2.5744,2.5827,2.5827,2.5828,2.5877,2.5872,2.5948,2.5875,2.5856,2.5868,2.5865,2.5921,2.5927,2.5946,2.6036,2.6039,2.5964,2.5967,2.5969,2.5971,0,0,0,0,0,0,0,2.5728,2.574,2.5861,2.5828,2.5829,2.582,2.5827,2.5886,2.5902,2.5858,2.5855,2.5864,2.592,2.5941,2.5948,2.604,2.5964,2.5969,2.5972,2.5974,2.6202,2.6204,0,0,0,0,0,0,2.5724,2.5736,2.5858,2.5863,2.5773,2.5825,2.5833,2.5864,2.5902,2.5905,2.5867,2.5863,2.5933,2.5942,2.595,2.6051,2.5969,2.5974,2.5977,2.6199,2.6202,2.6205,0,0,0,0,0,0,2.572,2.5735,2.5856,2.5799,2.5814,2.583,2.5865,2.5867,2.5887,2.5908,2.5911,2.5885,2.5932,2.5943,2.6012,2.6054,2.5977,2.5982,2.6195,2.62,2.6204,2.6256,0,0,0,0,0,0,2.5716,2.5734,2.5768,2.58,2.5817,2.5918,2.5868,2.587,2.5897,2.5892,2.5927,2.593,2.593,2.6004,2.6017,2.6059,2.5986,2.6192,2.6197,2.6202,2.6251,2.6261,2.6271,0,0,0,0,0,2.571,2.578,2.577,2.5785,2.586,2.592,2.593,2.593,2.59,2.5934,2.5947,2.5929,2.6047,2.6012,2.6026,2.607,2.6189,2.6196,2.6202,2.6246,2.6259,2.6271,0,0,0,0,0,0,2.5752,2.5784,2.5773,2.5856,2.5885,2.5915,2.5957,2.5944,2.5983,2.5977,2.5974,2.5982,2.6054,2.6069,2.603,2.6154,2.6113,2.6123,2.6142,2.6155,2.6165,2.6159,2.599,0,0,0,0,0,2.5771,2.5818,2.5843,2.5914,2.5929,2.594,2.5967,2.5964,2.5995,2.6007,2.6025,2.6055,2.6098,2.6127,2.6169,2.6252,2.6258,2.629,2.63,2.6308,2.6316,2.6359,2.6373,2.6227,2.6226,2.6226,0,0,2.581,2.5833,2.5864,2.5922,2.5945,2.5993,2.5951,2.6004,2.6039,2.6015,2.6082,2.6096,2.6128,2.6205,2.6239,2.622,2.6358,2.6316,2.6322,2.6326,2.6367,2.6381,2.6394,2.6231,2.623,2.6229,0,0,2.5906,2.593,2.599,2.6013,2.6048,2.6055,2.6069,2.61,2.6109,2.6175,2.6157,2.6198,2.6274,2.6298,2.632,2.6422,2.6406,2.6436,2.6488,2.6531,2.6542,2.6552,2.6588,2.6601,2.6444,2.6444,2.6444,0,2.5951,2.6023,2.6022,2.6076,2.6102,2.6082,2.6142,2.6164,2.6211,2.6228,2.6205,2.6299,2.6319,2.64,2.6425,2.6444,2.6459,2.6432,2.6541,2.6551,2.656,2.6594,2.6608,2.6447,2.6447,2.6447,2.6446,0,2.6075,2.6126,2.617,2.6215,2.6246,2.6303,2.6309,2.634,2.6334,2.6342,2.6409,2.6433,2.6478,2.6497,2.6492,2.6577,2.6563,2.6541,2.65,2.6578,2.6609,2.6622,2.6452,2.6451,2.645,2.6449,0,0,2.6201,2.6244,2.626,2.628,2.6316,2.6354,2.6409,2.6453,2.6479,2.6511,2.6556,2.6619,2.6598,2.6623,2.662,2.6657,2.6735,2.663,2.6631,2.6648,2.6828,2.6844,2.6859,2.6725,2.6727,2.6729,2.6825,0,2.6299,2.6397,2.6396,2.6485,2.6531,2.6511,2.6558,2.6585,2.6594,2.6633,2.6642,2.6687,2.6656,2.6671,2.6707,2.6718,2.6771,2.6711,2.6765,2.6767,2.6757,2.6876,2.6894,2.6983,2.6837,2.6839,2.6841,0,2.6427,2.6463,2.6557,2.6585,2.6604,2.6647,2.6686,2.6724,2.6752,2.6756,2.6783,2.6774,2.6828,2.6785,2.6859,2.6818,2.684,2.6848,2.6852,2.6856,2.6809,2.6883,2.7012,2.7025,2.686,2.6859,2.6857,0,2.6508,2.658,2.6645,2.6662,2.6697,2.6727,2.6742,2.6768,2.6794,2.6828,2.6845,2.6885,2.6906,2.6937,2.6938,2.6907,2.7011,2.6969,2.7015,2.7015,2.7038,2.7036,2.7171,2.7053,2.7053,2.7053,2.7052,0,2.6618,2.6675,2.6682,2.6722,2.6785,2.6783,2.6846,2.6858,2.6881,2.6922,2.6907,2.6946,2.6945,2.6984,2.6985,2.7044,2.7054,2.7058,2.7057,2.7059,2.7059,2.7073,2.7067,2.7056,2.7055,2.7055,2.7054,0,2.6719,2.6726,2.6795,2.6821,2.6829,2.6874,2.6896,2.6933,2.694,2.6992,2.7004,2.7015,2.7059,2.7063,2.7115,2.7115,2.7187,2.7181,2.7178,2.7177,2.7222,2.7217,2.737,2.739,2.726,2.7261,2.7262,0,2.6788,2.6832,2.6863,2.6889,2.6906,2.6949,2.6975,2.6974,2.7002,2.7037,2.7069,2.7112,2.7147,2.7218,2.723,2.7269,2.7262,2.7313,2.7268,2.7268,2.7262,2.7259,2.7263,2.7322,2.7324,2.7325,2.7326,0,2.691,2.691,2.6949,2.6989,2.702,2.7051,2.708,2.7102,2.7104,2.7136,2.7181,2.7208,2.726,2.7302,2.734,2.7355,2.734,2.734,2.7352,2.7354,2.735,2.7352,2.7201,2.7336,2.7335,2.7334,2.7334,2.7333,2.6996,2.7034,2.7061,2.7104,2.7125,2.7152,2.7188,2.7199,2.7237,2.728,2.7276,2.7326,2.7351,2.7401,2.7418,2.7456,2.7439,2.7457,2.7461,2.7466,2.747,2.7345,2.7463,2.7462,2.7462,2.7462,2.7462,0,2.7116,2.7132,2.7172,2.7212,2.7246,2.7229,2.726,2.7289,2.7333,2.7358,2.7392,2.7443,2.7483,2.7498,2.7537,2.7564,2.7559,2.7575,2.7572,2.7575,2.7484,2.7469,2.7578,2.7578,2.7578,2.7578,2.7578,2.7578,2.7182,2.7244,2.7248,2.7319,2.7335,2.7384,2.7402,2.7426,2.7446,2.7504,2.7538,2.7547,2.7567,2.7608,2.7643,2.7646,2.7661,2.768,2.768,2.7594,2.7582,2.7571,2.7557,2.7683,2.7683,2.7768,2.7769,2.777]}]]